{"data":{"norad_id":82199,"intl_designator":"","name":"UNKNOWN","alt_names":[],"object_type":"UNKNOWN","status":"UNKNOWN","operator":null,"country":null,"launch_date":null,"launch_site_code":null,"launch_vehicle":null,"mission":null,"orbit_class":"UNKNOWN","rcs_meters":null,"size_class":null,"mass_kg":null,"dimensions":null,"purposes":[],"wikipedia_slug":null,"has_3d_model":false,"image_url":null,"decayed_at":null,"tle_current":{"epoch":"2026-05-22T16:56:42.394272Z","epoch_age_seconds":269908,"freshness":"STALE","line1":"1 82199U          26142.70604623  .00000401  00000+0  33441-3 0  9994","line2":"2 82199  82.9650 112.8666 0035613 301.8755 237.2687 13.85958440631987","mean_motion":13.8595844,"eccentricity":0.0035613,"inclination_deg":82.965,"raan_deg":112.8666,"arg_perigee_deg":301.8755,"mean_anomaly_deg":237.2687,"bstar":0.00033441,"rev_number":63198,"period_min":103.89921937342,"perigee_km":916.75650344351,"apogee_km":968.90081344234,"semimajor_km":7320.9656584429,"source":"CELESTRAK","updated_at":"2026-05-25T13:38:11.184769Z"}}}